Location: Squirrel Cove
(50.1074°N, 124.9139°W)
Time: 14:02:14
(UTC-07:00)

PCSat - Pass Details

Date: 20 May 2022
Orbit: 784 x 795 km, 67.1° (Epoch: 26 June)

Event Time Altitude Azimuth Distance (km) Brightness Sun altitude
Rises 21:43:29 0° 261° (W) 3,287 13.4 -5.5°
Reaches altitude 10° 21:46:21 10° 275° (W) 2,362 13.0 -5.9°
Maximum altitude 21:50:43 24° 329° (NNW) 1,597 12.3 -6.4°
Drops below altitude 10° 21:55:06 10° 23° (NNE) 2,373 12.3 -6.9°
Sets 21:58:00 0° 37° (NE) 3,306 12.9 -7.2°
